N3HBJ Weather Reports


Display with metric or nautical units.
time (UTC)temp
F
wind
direction
speed
MPH
gust
MPH
rain 1hr
in
rain 24hr
in
rain mn
in
humidity
%
barometer
mb
20240620215921 87 59 3.0 9.0 0.00 0.00 0.00 49 1025.3
20240620215418 87 68 2.0 9.0 0.00 0.00 0.00 50 1025.4
20240620214910 88 67 2.0 9.0 0.00 0.00 0.00 51 1025.4
20240620214630 88 22 2.0 8.0 0.00 0.00 0.00 51 1025.5
20240620213900 88 13 2.0 6.0 0.00 0.00 0.00 48 1025.6
20240620213354 88 351 1.0 6.0 0.00 0.00 0.00 48 1025.6
20240620212852 88 44 1.0 5.0 0.00 0.00 0.00 49 1025.7
20240620212353 88 128 1.0 5.0 0.00 0.00 0.00 48 1025.7
20240620211851 88 109 3.0 9.0 0.00 0.00 0.00 47 1025.8
20240620211351 88 59 3.0 10.0 0.00 0.00 0.00 46 1025.8
20240620210851 88 55 2.0 10.0 0.00 0.00 0.00 45 1025.9
20240620210615 88 111 1.0 5.0 0.00 0.00 0.00 46 1025.8
20240620210115 88 275 2.0 7.0 0.00 0.00 0.00 45 1025.9
20240620205401 88 42 3.0 9.0 0.00 0.00 0.00 45 1026.0
20240620205107 88 61 2.0 9.0 0.00 0.00 0.00 47 1026.1
20240620204344 88 40 2.0 7.0 0.00 0.00 0.00 44 1026.1
20240620203847 88 58 1.0 5.0 0.00 0.00 0.00 46 1026.1
20240620203349 88 86 2.0 7.0 0.00 0.00 0.00 45 1026.1
20240620202843 88 327 2.0 8.0 0.00 0.00 0.00 48 1026.2
20240620202343 88 105 3.0 9.0 0.00 0.00 0.00 44 1026.3
20240620201840 88 87 3.0 9.0 0.00 0.00 0.00 45 1026.4
20240620201346 88 82 2.0 8.0 0.00 0.00 0.00 39 1026.4
20240620200840 89 88 2.0 8.0 0.00 0.00 0.00 44 1026.5
20240620200341 88 72 1.0 4.0 0.00 0.00 0.00 42 1026.5
20240620195843 88 91 1.0 6.0 0.00 0.00 0.00 47 1026.6
20240620195339 88 246 1.0 6.0 0.00 0.00 0.00 45 1026.6
20240620194840 88 39 2.0 8.0 0.00 0.00 0.00 48 1026.7
20240620194337 88 84 2.0 8.0 0.00 0.00 0.00 45 1026.7
20240620194054 88 65 1.0 8.0 0.00 0.00 0.00 46 1026.8
20240620193342 88 335 1.0 8.0 0.00 0.00 0.00 44 1026.9
20240620192842 87 69 3.0 9.0 0.00 0.00 0.00 47 1026.9
20240620192337 88 40 3.0 9.0 0.00 0.00 0.00 45 1027.0
20240620191836 88 67 2.0 7.0 0.00 0.00 0.00 46 1027.0
20240620191336 88 71 1.0 5.0 0.00 0.00 0.00 46 1027.1
20240620190838 88 11 1.0 5.0 0.00 0.00 0.00 48 1027.1
20240620190337 87 131 1.0 5.0 0.00 0.00 0.00 45 1027.1
20240620190058 87 63 1.0 5.0 0.00 0.00 0.00 45 1027.1
20240620185333 87 88 3.0 9.0 0.00 0.00 0.00 45 1027.1
20240620184836 87 98 3.0 9.0 0.00 0.00 0.00 45 1027.2
20240620184333 86 84 4.0 12.0 0.00 0.00 0.00 47 1027.2
20240620184313 87 75 3.0 12.0 0.00 0.00 0.00 48 1027.2
20240620183329 87 347 2.0 11.0 0.00 0.00 0.00 50 1027.1
20240620183054 87 355 2.0 11.0 0.00 0.00 0.00 50 1027.2
20240620182331 87 5 2.0 13.0 0.00 0.00 0.00 52 1027.2
20240620181831 87 60 2.0 13.0 0.00 0.00 0.00 48 1027.2
20240620181331 87 103 1.0 9.0 0.00 0.00 0.00 48 1027.3
20240620180830 86 31 1.0 6.0 0.00 0.00 0.00 47 1027.3
20240620180327 86 59 2.0 7.0 0.00 0.00 0.00 48 1027.4
20240620175838 86 87 2.0 7.0 0.00 0.00 0.00 49 1027.4
20240620175326 87 138 2.0 7.0 0.00 0.00 0.00 48 1027.6
20240620174826 87 69 2.0 9.0 0.00 0.00 0.00 47 1027.6
20240620174540 86 355 1.0 9.0 0.00 0.00 0.00 49 1027.6
20240620173822 86 0 1.0 5.0 0.00 0.00 0.00 53 1027.6
20240620173324 86 174 2.0 7.0 0.00 0.00 0.00 50 1027.6
20240620172826 86 40 1.0 7.0 0.00 0.00 0.00 47 1027.7
20240620172326 86 120 2.0 8.0 0.00 0.00 0.00 50 1027.7
20240620171824 86 80 2.0 8.0 0.00 0.00 0.00 48 1027.8
20240620171320 86 56 2.0 7.0 0.00 0.00 0.00 48 1027.8
20240620170812 86 67 1.0 7.0 0.00 0.00 0.00 55 1027.9
20240620170308 86 61 1.0 6.0 0.00 0.00 0.00 52 1027.9
20240620170251 86 50 1.0 6.0 0.00 0.00 0.00 48 1027.9
20240620165256 85 298 2.0 6.0 0.00 0.00 0.00 49 1027.9
20240620164751 85 76 2.0 6.0 0.00 0.00 0.00 50 1028.0
20240620164505 86 67 1.0 5.0 0.00 0.00 0.00 51 1028.0
20240620163736 86 85 1.0 4.0 0.00 0.00 0.00 56 1028.0
20240620163230 85 133 0.0 3.0 0.00 0.00 0.00 55 1028.0
20240620162723 85 262 0.0 3.0 0.00 0.00 0.00 60 1028.1
20240620162450 85 283 0.0 3.0 0.00 0.00 0.00 56 1028.2
20240620161718 85 260 0.0 1.0 0.00 0.00 0.00 56 1028.2
20240620161206 85 313 0.0 1.0 0.00 0.00 0.00 60 1028.2
20240620160700 84 336 0.0 2.0 0.00 0.00 0.00 59 1028.3
20240620160156 83 336 0.0 2.0 0.00 0.00 0.00 59 1028.4
20240620160139 83 355 0.0 2.0 0.00 0.00 0.00 60 1028.4
20240620155142 83 257 0.0 3.0 0.00 0.00 0.00 61 1028.5
20240620154636 83 263 0.0 3.0 0.00 0.00 0.00 63 1028.5
20240620154131 83 241 0.0 4.0 0.00 0.00 0.00 60 1028.5
20240620153626 82 301 0.0 4.0 0.00 0.00 0.00 63 1028.4
20240620153120 83 284 0.0 2.0 0.00 0.00 0.00 61 1028.4
20240620152836 83 221 0.0 1.0 0.00 0.00 0.00 59 1028.4
20240620152108 83 167 0.0 1.0 0.00 0.00 0.00 59 1028.4
20240620151601 83 294 0.0 1.0 0.00 0.00 0.00 60 1028.4
20240620151057 83 294 0.0 3.0 0.00 0.00 0.00 60 1028.4
20240620150556 83 294 0.0 3.0 0.00 0.00 0.00 57 1028.4
20240620150056 82 355 0.0 1.0 0.00 0.00 0.00 59 1028.4
20240620145538 82 355 1.0 4.0 0.00 0.00 0.00 59 1028.4
20240620145255 82 65 1.0 4.0 0.00 0.00 0.00 59 1028.5
20240620144528 82 5 0.0 1.0 0.00 0.00 0.00 58 1028.6
20240620144024 81 5 0.0 1.0 0.00 0.00 0.00 59 1028.6
20240620143736 81 89 0.0 1.0 0.00 0.00 0.00 62 1028.6
20240620143005 80 66 0.0 1.0 0.00 0.00 0.00 65 1028.7
20240620142504 80 66 0.0 1.0 0.00 0.00 0.00 61 1028.7
20240620141957 80 66 0.0 3.0 0.00 0.00 0.00 62 1028.6
20240620141457 80 66 0.0 3.0 0.00 0.00 0.00 63 1028.7
20240620140951 80 41 0.0 2.0 0.00 0.00 0.00 67 1028.8
20240620140453 79 291 0.0 2.0 0.00 0.00 0.00 64 1028.8
20240620140206 79 306 0.0 0.0 0.00 0.00 0.00 67 1028.7
20240620135448 78 306 0.0 1.0 0.00 0.00 0.00 65 1028.8
20240620135219 78 306 0.0 1.0 0.00 0.00 0.00 70 1028.7
20240620134459 77 306 0.0 0.0 0.00 0.00 0.00 72 1028.7
20240620133945 77 306 0.0 0.0 0.00 0.00 0.00 71 1028.8
20240620133442 76 306 0.0 0.0 0.00 0.00 0.00 71 1028.9
20240620132940 75 306 0.0 0.0 0.00 0.00 0.00 73 1028.9
20240620132929 75 306 0.0 0.0 0.00 0.00 0.00 73 1028.8
20240620131941 74 306 0.0 0.0 0.00 0.00 0.00 75 1028.7
20240620131440 73 306 0.0 0.0 0.00 0.00 0.00 77 1028.8
20240620130937 73 306 0.0 1.0 0.00 0.00 0.00 79 1028.9
20240620130433 72 306 0.0 1.0 0.00 0.00 0.00 79 1028.8
20240620125930 71 306 0.0 0.0 0.00 0.00 0.00 83 1028.8
20240620125429 71 306 0.0 1.0 0.00 0.00 0.00 84 1028.8
20240620124947 70 306 0.0 1.0 0.00 0.00 0.00 85 1028.9
20240620124430 69 306 0.0 3.0 0.00 0.00 0.00 88 1028.9
20240620124147 68 307 0.0 3.0 0.00 0.00 0.00 90 1029.0
20240620123435 67 65 0.0 1.0 0.00 0.00 0.00 93 1028.9
20240620123420 66 65 0.0 0.0 0.00 0.00 0.00 94 1028.8
20240620122428 65 65 0.0 0.0 0.00 0.00 0.00 94 1028.9
20240620121925 65 65 0.0 0.0 0.00 0.00 0.00 94 1028.8
20240620121433 65 65 0.0 0.0 0.00 0.00 0.00 95 1028.9
20240620120925 65 65 0.0 0.0 0.00 0.00 0.00 97 1028.8
20240620120429 64 65 0.0 0.0 0.00 0.00 0.00 97 1028.8
20240620115931 64 65 0.0 0.0 0.00 0.00 0.00 97 1028.7
20240620115422 63 65 0.0 0.0 0.00 0.00 0.00 96 1028.7
20240620114923 63 65 0.0 2.0 0.00 0.00 0.00 97 1028.6
20240620114431 63 65 0.0 2.0 0.00 0.00 0.00 97 1028.6
20240620113925 63 65 0.0 0.0 0.00 0.00 0.00 97 1028.5
20240620113424 62 65 0.0 0.0 0.00 0.00 0.00 97 1028.5
20240620112940 62 65 0.0 0.0 0.00 0.00 0.00 97 1028.5
20240620112425 62 65 0.0 0.0 0.00 0.00 0.00 97 1028.5
20240620111922 62 65 0.0 0.0 0.00 0.00 0.00 97 1028.5
20240620111426 62 65 0.0 0.0 0.00 0.00 0.00 97 1028.6
20240620110918 61 65 0.0 0.0 0.00 0.00 0.00 97 1028.5
20240620110426 61 65 0.0 0.0 0.00 0.00 0.00 97 1028.6
20240620105909 61 65 0.0 0.0 0.00 0.00 0.00 96 1028.5
20240620105856 61 65 0.0 0.0 0.00 0.00 0.00 97 1028.5
20240620104854 60 65 0.0 0.0 0.00 0.00 0.00 96 1028.5
20240620104347 60 65 0.0 0.0 0.00 0.00 0.00 96 1028.4
20240620104056 60 65 0.0 0.0 0.00 0.00 0.00 96 1028.3
20240620103559 60 65 0.0 0.0 0.00 0.00 0.00 96 1028.0
20240620102838 60 65 0.0 0.0 0.00 0.00 0.00 96 1028.0
20240620102336 60 65 0.0 0.0 0.00 0.00 0.00 96 1028.0
20240620101837 60 65 0.0 0.0 0.00 0.00 0.00 96 1028.0
20240620101331 60 65 0.0 0.0 0.00 0.00 0.00 96 1028.1
20240620101051 60 65 0.0 0.0 0.00 0.00 0.00 96 1028.1
20240620100330 60 65 0.0 0.0 0.00 0.00 0.00 96 1028.1
20240620100046 60 65 0.0 0.0 0.00 0.00 0.00 96 1028.1
20240620095325 60 65 0.0 0.0 0.00 0.00 0.00 96 1028.1
20240620094829 60 65 0.0 0.0 0.00 0.00 0.00 95 1028.0
20240620094326 60 65 0.0 0.0 0.00 0.00 0.00 96 1028.0
20240620093820 60 65 0.0 0.0 0.00 0.00 0.00 96 1028.0
20240620093321 60 65 0.0 0.0 0.00 0.00 0.00 96 1028.0
20240620092818 60 65 0.0 0.0 0.00 0.00 0.00 95 1028.0
20240620092330 61 65 0.0 0.0 0.00 0.00 0.00 95 1028.0
20240620092046 61 65 0.0 0.0 0.00 0.00 0.00 95 1027.9
20240620091559 61 65 0.0 0.0 0.00 0.00 0.00 96 1027.9
20240620090816 61 65 0.0 0.0 0.00 0.00 0.00 95 1027.8
20240620090320 61 65 0.0 0.0 0.00 0.00 0.00 95 1027.9
20240620090030 61 65 0.0 0.0 0.00 0.00 0.00 95 1027.8
20240620090021 61 65 0.0 0.0 0.00 0.00 0.00 95 1027.8
20240620084806 61 65 0.0 0.0 0.00 0.00 0.00 95 1027.8
20240620084302 61 65 0.0 0.0 0.00 0.00 0.00 95 1027.8
20240620083758 62 65 0.0 0.0 0.00 0.00 0.00 95 1027.8
20240620083248 62 65 0.0 0.0 0.00 0.00 0.00 95 1027.8
20240620083006 62 65 0.0 0.0 0.00 0.00 0.00 95 1027.8
20240620082235 62 65 0.0 0.0 0.00 0.00 0.00 95 1027.9
20240620081731 62 65 0.0 0.0 0.00 0.00 0.00 95 1027.8
20240620081226 62 65 0.0 0.0 0.00 0.00 0.00 96 1027.8
20240620080938 62 65 0.0 0.0 0.00 0.00 0.00 95 1028.0
20240620080447 62 65 0.0 0.0 0.00 0.00 0.00 95 1028.0
20240620075704 62 65 0.0 0.0 0.00 0.00 0.00 95 1028.1
20240620075200 62 65 0.0 0.0 0.00 0.00 0.00 95 1028.0
20240620074656 62 65 0.0 0.0 0.00 0.00 0.00 95 1028.0
20240620074159 62 65 0.0 0.0 0.00 0.00 0.00 95 1028.0
20240620073641 62 65 0.0 0.0 0.00 0.00 0.00 95 1028.0
20240620073140 62 65 0.0 0.0 0.00 0.00 0.00 95 1028.0
20240620072631 62 65 0.0 0.0 0.00 0.00 0.00 95 1028.0
20240620072125 63 65 0.0 0.0 0.00 0.00 0.00 95 1028.1
20240620071838 63 65 0.0 0.0 0.00 0.00 0.00 95 1028.0
20240620071111 63 65 0.0 0.0 0.00 0.00 0.00 95 1027.9
20240620070607 63 65 0.0 0.0 0.00 0.00 0.00 95 1027.9
20240620070104 63 65 0.0 0.0 0.00 0.00 0.00 95 1028.0
20240620065556 63 65 0.0 0.0 0.00 0.00 0.00 95 1028.0
20240620065056 63 65 0.0 0.0 0.00 0.00 0.00 94 1028.1
20240620064555 63 65 0.0 0.0 0.00 0.00 0.00 94 1028.1
20240620064055 63 65 0.0 0.0 0.00 0.00 0.00 94 1028.1
20240620063823 63 65 0.0 0.0 0.00 0.00 0.00 94 1028.2
20240620063319 64 65 0.0 0.0 0.00 0.00 0.00 94 1028.3
20240620062552 64 65 0.0 0.0 0.00 0.00 0.00 95 1028.2
20240620062053 64 65 0.0 0.0 0.00 0.00 0.00 94 1028.3
20240620061558 64 65 0.0 0.0 0.00 0.00 0.00 94 1028.3
20240620061049 64 65 0.0 0.0 0.00 0.00 0.00 94 1028.3
20240620060552 64 65 0.0 0.0 0.00 0.00 0.00 95 1028.3
20240620060317 64 65 0.0 0.0 0.00 0.00 0.00 95 1028.3
20240620055547 64 65 0.0 0.0 0.00 0.00 0.00 94 1028.3
20240620055050 65 65 0.0 0.0 0.00 0.00 0.00 94 1028.3
20240620054547 65 65 0.0 0.0 0.00 0.00 0.00 94 1028.3
20240620054047 65 65 0.0 0.0 0.00 0.00 0.00 94 1028.2
20240620053549 65 65 0.0 0.0 0.00 0.00 0.00 94 1028.3
20240620053047 65 65 0.0 0.0 0.00 0.00 0.00 94 1028.3
20240620052809 65 65 0.0 0.0 0.00 0.00 0.00 94 1028.3
20240620052301 65 65 0.0 0.0 0.00 0.00 0.00 94 1028.3
20240620051554 65 65 0.0 0.0 0.00 0.00 0.00 94 1028.4
20240620051048 65 65 0.0 0.0 0.00 0.00 0.00 94 1028.4
20240620050803 65 65 0.0 0.0 0.00 0.00 0.00 93 1028.4
20240620050056 66 65 0.0 0.0 0.00 0.00 0.00 93 1028.4
20240620045546 66 65 0.0 0.0 0.00 0.00 0.00 94 1028.4
20240620045317 66 65 0.0 0.0 0.00 0.00 0.00 94 1028.4
20240620044809 66 65 0.0 0.0 0.00 0.00 0.00 94 1028.4
20240620044037 66 65 0.0 0.0 0.00 0.00 0.00 93 1028.3
20240620043543 66 65 0.0 0.0 0.00 0.00 0.00 93 1028.2
20240620043041 67 65 0.0 0.0 0.00 0.00 0.00 93 1028.1
20240620042537 67 65 0.0 0.0 0.00 0.00 0.00 93 1028.2
20240620042036 67 65 0.0 0.0 0.00 0.00 0.00 92 1028.3
20240620041538 67 65 0.0 0.0 0.00 0.00 0.00 93 1028.3
20240620041036 67 65 0.0 0.0 0.00 0.00 0.00 93 1028.4
20240620040538 67 65 0.0 0.0 0.00 0.00 0.00 92 1028.4
20240620040310 67 65 0.0 0.0 0.00 0.00 0.00 92 1028.4
20240620035535 67 65 0.0 0.0 0.00 0.00 0.00 92 1028.3
20240620035028 68 65 0.0 0.0 0.00 0.00 0.00 92 1028.3
20240620035010 68 65 0.0 0.0 0.00 0.00 0.00 92 1028.3
20240620034017 68 65 0.0 0.0 0.00 0.00 0.00 92 1028.2
20240620033514 68 65 0.0 0.0 0.00 0.00 0.00 91 1028.3
20240620033007 68 65 0.0 0.0 0.00 0.00 0.00 91 1028.4
20240620032459 68 65 0.0 0.0 0.00 0.00 0.00 91 1028.2
20240620031952 69 65 0.0 0.0 0.00 0.00 0.00 90 1028.2
20240620031449 69 65 0.0 0.0 0.00 0.00 0.00 90 1028.1
20240620030940 69 65 0.0 0.0 0.00 0.00 0.00 90 1028.2
20240620030432 69 65 0.0 0.0 0.00 0.00 0.00 89 1028.3
20240620025925 69 65 0.0 0.0 0.00 0.00 0.00 89 1028.3
20240620025420 69 65 0.0 0.0 0.00 0.00 0.00 89 1028.3
20240620025141 70 65 0.0 0.0 0.00 0.00 0.00 89 1028.3
20240620024412 70 65 0.0 0.0 0.00 0.00 0.00 89 1028.2
20240620023908 70 65 0.0 0.0 0.00 0.00 0.00 87 1028.3
20240620023355 70 65 0.0 0.0 0.00 0.00 0.00 87 1028.2
20240620023110 71 65 0.0 0.0 0.00 0.00 0.00 86 1028.0
20240620022343 71 65 0.0 0.0 0.00 0.00 0.00 86 1028.0
20240620021846 71 65 0.0 0.0 0.00 0.00 0.00 85 1028.0
20240620021334 72 65 0.0 0.0 0.00 0.00 0.00 85 1028.0
20240620020826 72 65 0.0 0.0 0.00 0.00 0.00 85 1028.0
20240620020320 73 65 0.0 0.0 0.00 0.00 0.00 83 1028.0
20240620015817 73 65 0.0 0.0 0.00 0.00 0.00 81 1027.8
20240620015307 74 65 0.0 0.0 0.00 0.00 0.00 80 1027.7
20240620015034 75 65 0.0 0.0 0.00 0.00 0.00 79 1027.6
20240620014531 75 65 0.0 3.0 0.00 0.00 0.00 77 1027.6
20240620013753 76 65 0.0 4.0 0.00 0.00 0.00 75 1027.4
20240620013243 76 70 0.0 3.0 0.00 0.00 0.00 76 1027.3
20240620012740 76 70 0.0 3.0 0.00 0.00 0.00 76 1027.3
20240620012231 76 72 0.0 2.0 0.00 0.00 0.00 75 1027.3
20240620011729 76 72 0.0 2.0 0.00 0.00 0.00 76 1027.3
20240620011220 76 72 0.0 0.0 0.00 0.00 0.00 75 1027.2
20240620010716 76 72 0.0 0.0 0.00 0.00 0.00 76 1027.2
20240620010208 77 72 0.0 0.0 0.00 0.00 0.00 75 1027.2
20240620005711 78 72 0.0 0.0 0.00 0.00 0.00 73 1027.2
20240620005157 78 72 0.0 0.0 0.00 0.00 0.00 72 1027.1
20240620004655 79 72 0.0 0.0 0.00 0.00 0.00 71 1027.0
20240620004156 79 72 0.0 0.0 0.00 0.00 0.00 69 1026.9
20240620003657 80 72 0.0 0.0 0.00 0.00 0.00 68 1026.8
20240620003641 80 72 0.0 0.0 0.00 0.00 0.00 66 1026.8
20240620002655 81 72 0.0 0.0 0.00 0.00 0.00 67 1026.8
20240620002153 81 73 0.0 1.0 0.00 0.00 0.00 64 1026.8
20240620001920 82 72 0.0 3.0 0.00 0.00 0.00 64 1026.8
20240620001154 82 72 0.0 3.0 0.00 0.00 0.00 63 1026.8
20240620000659 82 76 0.0 2.0 0.00 0.00 0.00 62 1026.8
20240620000154 83 78 0.0 2.0 0.00 0.00 0.00 62 1026.8
20240619235654 83 78 0.0 3.0 0.00 0.00 0.00 61 1026.8
20240619235154 83 78 1.0 3.0 0.00 0.00 0.00 60 1026.9
20240619234652 83 78 1.0 7.0 0.00 0.00 0.00 59 1026.9
20240619234414 83 36 2.0 7.0 0.00 0.00 0.00 58 1026.9
20240619233654 83 78 2.0 6.0 0.00 0.00 0.00 58 1026.9
20240619233151 84 80 3.0 6.0 0.00 0.00 0.00 58 1026.9
20240619233139 84 42 3.0 8.0 0.00 0.00 0.00 57 1026.7
20240619232155 84 53 3.0 8.0 0.00 0.00 0.00 57 1026.8
20240619231655 84 69 1.0 7.0 0.00 0.00 0.00 57 1026.8
20240619231151 85 37 2.0 4.0 0.00 0.00 0.00 57 1026.8
20240619230654 84 80 3.0 9.0 0.00 0.00 0.00 57 1026.9
20240619230153 84 334 4.0 9.0 0.00 0.00 0.00 56 1026.8
20240619225654 84 78 4.0 10.0 0.00 0.00 0.00 57 1026.8
20240619225147 85 68 3.0 10.0 0.00 0.00 0.00 57 1026.8
20240619224647 84 42 3.0 9.0 0.00 0.00 0.00 58 1026.8
20240619224151 84 90 2.0 9.0 0.00 0.00 0.00 57 1026.8
20240619223648 84 355 3.0 8.0 0.00 0.00 0.00 57 1026.8
20240619223151 84 76 2.0 6.0 0.00 0.00 0.00 58 1026.8
20240619222651 84 103 2.0 6.0 0.00 0.00 0.00 59 1026.7
20240619222152 84 74 2.0 7.0 0.00 0.00 0.00 59 1026.7
20240619221652 84 96 2.0 7.0 0.00 0.00 0.00 60 1026.8
20240619221148 84 71 1.0 5.0 0.00 0.00 0.00 58 1026.8
20240619220647 84 75 1.0 7.0 0.00 0.00 0.00 57 1026.7